Bonaire, Netherlands

4:57 PM AST on June 27, 2017 (GMT -0400)
Flamingo

Weather History for TNCB - February, 2013

Change the Weather History Date:

Sunday, February 10, 2013

  Actual Average Record
Temperature  
Mean Temperature 80 °F -  
Max Temperature 85 °F 84 °F 87 °F (2003)
Min Temperature 75 °F 77 °F 75 °F (2001)
Cooling Degree Days 15    
Growing Degree Days 30 (Base 50)    
Moisture  
Dew Point 71 °F    
Average Humidity 75    
Maximum Humidity 89    
Minimum Humidity 62    
Precipitation  
Precipitation 0.01 in - - ()
Sea Level Pressure  
Sea Level Pressure 29.96 in    
Wind  
Wind Speed 7 mph ()    
Max Wind Speed 17 mph    
Max Gust Speed -    
Visibility 7.8 miles    
Events      
Averages and records for this station are not official NWS values.
T = Trace of Precipitation, MM = Missing Value Source: Averaged Metar Reports

Daily Weather History Graph

Daily Weather History Graph

Search for Another Location

Airport or City:

Trip Planner

Search our weather history database for the weather conditions in past years. The results will help you decide how hot, cold, wet, or windy it might be!

Date:

Astronomy

Feb. 10, 2013 Rise Set
Actual Time 6:56 AM AST 6:38 PM AST
Civil Twilight 6:34 AM AST 7:00 PM AST
Nautical Twilight 6:09 AM AST 7:25 PM AST
Astronomical Twilight 5:44 AM AST 7:50 PM AST
Moon 6:56 AM AST (2/10) 7:07 PM AST (2/10)
Length of Visible Light 12h 25m
Length of Day
11h 42m
New Moon, 0% of the Moon is Illuminated
Feb 10
New Moon
Feb 17
First Quarter
Feb 25
Full
Mar 4
Last Quarter
Mar 11
New

Hourly Weather History & Observations

Time (AST) Temp. Heat Index Dew Point Humidity Pressure Visibility Wind Dir Wind Speed Gust Speed Precip Events Conditions
12:00 AM 77.0 °F - 71.6 °F 83% 29.95 in - ENE 4.6 mph - N/A   Unknown
1:00 AM 77.0 °F - 69.8 °F 78% 29.95 in - ENE 5.8 mph - N/A   Unknown
2:00 AM 76 °F - 71 °F 82%  in - ENE 5.8 mph - -   Clear
2:00 AM 77.0 °F - 71.6 °F 83% 29.95 in - ENE 5.8 mph - N/A   Unknown
3:00 AM 75.2 °F - 71.6 °F 89% 29.92 in - ENE 4.6 mph - N/A   Unknown
4:00 AM 75.2 °F - 69.8 °F 83% 29.92 in - East 4.6 mph - N/A   Unknown
5:00 AM 75 °F - 70 °F 80%  in - ENE 3.5 mph - -   Clear
5:00 AM 75.2 °F - 69.8 °F 83% 29.92 in - ENE 3.5 mph - N/A   Unknown
6:00 AM 75.2 °F - 71.6 °F 89% 29.92 in - East 4.6 mph - N/A   Unknown
7:00 AM 77.0 °F - 71.6 °F 83% 29.95 in - ENE 6.9 mph - N/A   Unknown
8:00 AM 79 °F - 74 °F 80% 29.97 in 22 mi East 6.9 mph - -   Partly Cloudy
8:00 AM 78.8 °F - 73.4 °F 83% 29.95 in 6.2 mi East 5.8 mph - N/A   Scattered Clouds
10:00 AM 84.2 °F 89.6 °F 71.6 °F 66% 30.01 in - East 13.8 mph - N/A   Unknown
11:00 AM 83 °F - 73 °F 64% 30.02 in 22 mi ENE 10.4 mph - -  
11:00 AM 84.2 °F 89.6 °F 71.6 °F 66% 30.01 in 6.2 mi East 15.0 mph - N/A   Mostly Cloudy
12:00 PM 84.2 °F 89.6 °F 71.6 °F 66% 30.01 in - East 16.1 mph - N/A   Unknown
1:00 PM 86.0 °F 91.8 °F 71.6 °F 62% 29.98 in 6.2 mi ESE 17.3 mph - N/A   Mostly Cloudy
2:00 PM 84.2 °F 89.6 °F 71.6 °F 66% 29.95 in - ESE 15.0 mph - N/A   Unknown
3:00 PM 84.2 °F 89.6 °F 71.6 °F 66% 29.92 in - East 15.0 mph - N/A   Unknown
4:00 PM 84.2 °F 89.6 °F 71.6 °F 66% 29.92 in 6.2 mi East 15.0 mph - N/A   Scattered Clouds
5:00 PM 83 °F - 72 °F 62%  in 6 mi East 12.7 mph - -   Clear
5:00 PM 82.4 °F 87.2 °F 71.6 °F 70% 29.92 in - East 12.7 mph - N/A   Unknown
6:00 PM 80.6 °F 84.6 °F 71.6 °F 74% 29.92 in - East 13.8 mph - N/A   Unknown
7:00 PM 80.6 °F 84.6 °F 71.6 °F 74% 29.95 in - East 10.4 mph - N/A   Unknown
8:00 PM 80 °F - 72 °F 71% 29.97 in 19 mi East 10.4 mph - -   Partly Cloudy
8:00 PM 78.8 °F - 71.6 °F 78% 29.95 in 6.2 mi East 10.4 mph - N/A   Scattered Clouds
9:00 PM 78.8 °F - 69.8 °F 74% 29.98 in - East 6.9 mph - N/A   Unknown
10:00 PM 78.8 °F - 69.8 °F 74% 30.01 in - East 12.7 mph - N/A   Unknown
11:00 PM 79 °F - 72 °F 73%  in 6 mi East 11.5 mph - -   Clear
11:00 PM 78.8 °F - 71.6 °F 78% 30.01 in - East 11.5 mph - N/A   Unknown